Terminal Aerodrome Forecast
Issued by NWS Charleston, WV

Current Version | Previous Version | Graphics & Text | Print | Product List | Glossary On
Versions: 1 2 3 4 5 6 7 8 9 10 11 12 13 14 15 16 17 18 19 20 21 22 23 24 25 26 27 28 29 30
000
FTUS41 KRLX 310500 RRA
TAFPKB
TAF
KPKB 310543Z 3106/0106 VRB03KT 6SM SHRA OVC060
     FM310900 00000KT 5SM SHRA OVC035
     FM311200 VRB03KT 6SM -SHRA OVC020
     FM311600 VRB03KT 3SM SHRA VCTS OVC035CB PROB30 3116/3119 2SM
      TSRA OVC030CB
     FM311900 21007KT 6SM -SHRA VCTS OVC040CB
     FM010000 21005KT 4SM SHRA BR OVC028
     FM010300 16004KT P6SM OVC016=

USA.gov is the U.S. government's official web portal to all federal, state and local government web resources and services.